Hourly Data Report for August 31, 2021

TORONTO CITY
ONTARIO
Current Station Operator: ECCC - MSC

43°40'00.000" N
79°24'00.000" W
112.50 m
6158355
71508
XTO

Download Data

Hourly Data (August 2021)
Hourly Data Report for August 31, 2021
TIME
LST
Temp Definition
°C
Dew Point Definition
°C
Rel Hum Definition
%
Precip. Amount Definition
mm

Wind Dir Definition
10's deg

Wind Spd Definition
km/h
Visibility Definition
km
Stn Press Definition
kPa
Hmdx Definition


Wind Chill Definition


Weather Definition


00:00 20.7 14.9 70 0.0       99.68 25   LegendNANA
01:00 20.3 15.0 72 0.0       99.70     LegendNANA
02:00 19.8 14.8 73 0.0       99.68     LegendNANA
03:00 19.3 15.0 76 0.0       99.67     LegendNANA
04:00 19.0 15.3 79 0.0       99.67     LegendNANA
05:00 18.8 15.2 80 0.0       99.68     LegendNANA
06:00 18.7 15.3 81 0.0       99.69     LegendNANA
07:00 19.4 14.5 73 0.0       99.71     LegendNANA
08:00 20.1 13.8 67 0.0       99.69     LegendNANA
09:00 21.9 14.7 63 0.0       99.70 26   LegendNANA
10:00 22.7 14.1 59 0.0       99.75 26   LegendNANA
11:00 24.2 14.1 53 0.0       99.75 28   LegendNANA
12:00 24.5 12.8 48 0.0       99.70 27   LegendNANA
13:00 25.8 13.2 46 0.0       99.65 29   LegendNANA
14:00 25.3 12.6 45 0.0       99.62 28   LegendNANA
15:00 25.2 11.7 43 0.0       99.58 27   LegendNANA
16:00 24.8 11.9 45 0.0       99.60 27   LegendNANA
17:00 24.0 11.9 47 0.0       99.59 26   LegendNANA
18:00 22.7 10.7 47 0.0       99.64     LegendNANA
19:00 21.7 10.7 50 0.0       99.66     LegendNANA
20:00 20.8 11.1 54 0.0       99.72     LegendNANA
21:00 20.1 11.7 58 0.0       99.75     LegendNANA
22:00 19.6 11.6 60 0.0       99.76     LegendNANA
23:00 19.2 12.1 64 0.0       99.75     LegendNANA

Notes on Data Quality.

Legend

  • E = Estimated
  • M = Missing
  • NA = Not Available*
  • [empty] = Indicates an unobserved value
Date modified: